EW5655 Weather Reports


time (UTC)temp
C
wind
direction
speed
KPH
gust
KPH
rain 1hr
cm
rain 24hr
cm
rain mn
cm
humidity
%
barometer
mb
20260507114521 10 47 4.8 9.7 0.00 0.00 0.00 36 1018.0
20260507114019 10 32 1.6 9.7 0.00 0.00 0.00 35 1017.9
20260507113519 10 48 1.6 8.0 0.00 0.00 0.00 34 1018.0
20260507113025 10 66 1.6 4.8 0.00 0.00 0.00 34 1017.9
20260507112519 10 56 0.0 8.0 0.00 0.00 0.00 32 1017.9
20260507112018 10 58 3.2 8.0 0.00 0.00 0.00 33 1017.9
20260507111518 10 49 1.6 8.0 0.00 0.00 0.00 32 1017.9
20260507111015 10 63 3.2 8.0 0.00 0.00 0.00 32 1018.0
20260507110514 10 65 3.2 9.7 0.00 0.00 0.00 31 1018.0
20260507110014 10 42 1.6 9.7 0.00 0.00 0.00 30 1017.9
20260507105511 11 46 0.0 4.8 0.00 0.00 0.00 30 1018.0
20260507105011 11 46 0.0 3.2 0.00 0.00 0.00 29 1017.8
20260507104510 11 46 0.0 3.2 0.00 0.00 0.00 29 1017.8
20260507104010 11 46 0.0 6.4 0.00 0.00 0.00 29 1017.8
20260507103509 11 46 1.6 6.4 0.00 0.00 0.00 28 1017.8
20260507103009 11 46 1.6 3.2 0.00 0.00 0.00 29 1017.7
20260507102508 11 46 0.0 8.0 0.00 0.00 0.00 28 1017.8
20260507102008 11 46 1.6 9.7 0.00 0.00 0.00 28 1017.8
20260507101507 11 58 3.2 9.7 0.00 0.00 0.00 28 1017.7
20260507101005 12 51 1.6 6.4 0.00 0.00 0.00 27 1017.6
20260507100506 12 49 0.0 11.3 0.00 0.00 0.00 26 1017.5
20260507100010 12 51 3.2 12.9 0.00 0.00 0.00 26 1017.5
20260507095506 13 7 6.4 12.9 0.00 0.00 0.00 25 1017.4
20260507095003 13 49 6.4 11.3 0.00 0.00 0.00 25 1017.4
20260507094502 13 38 4.8 12.9 0.00 0.00 0.00 24 1017.4
20260507094002 13 31 4.8 12.9 0.00 0.00 0.00 24 1017.3
20260507093501 13 11 6.4 14.5 0.00 0.00 0.00 23 1017.3
20260507093003 13 355 6.4 11.3 0.00 0.00 0.00 23 1017.3
20260507092502 13 17 1.6 9.7 0.00 0.00 0.00 23 1017.3
20260507092100 13 10 4.8 11.3 0.00 0.00 0.00 23 1017.3
20260507091600 13 3 4.8 11.3 0.00 0.00 0.00 24 1017.2
20260507091100 12 17 3.2 8.0 0.00 0.00 0.00 28 1017.3
20260507090600 12 16 0.0 1.6 0.00 0.00 0.00 30 1017.3
20260507090101 12 16 0.0 3.2 0.00 0.00 0.00 29 1017.3
20260507085556 12 16 0.0 3.2 0.00 0.00 0.00 27 1017.3
20260507085056 13 16 0.0 3.2 0.00 0.00 0.00 26 1017.3
20260507084605 13 15 0.0 6.4 0.00 0.00 0.00 25 1017.3
20260507084055 13 13 0.0 8.0 0.00 0.00 0.00 23 1017.3
20260507083557 14 13 3.2 9.7 0.00 0.00 0.00 22 1017.2
20260507083055 13 20 4.8 9.7 0.00 0.00 0.00 23 1017.2
20260507082555 14 36 3.2 11.3 0.00 0.00 0.00 23 1017.2
20260507082054 14 14 3.2 8.0 0.00 0.00 0.00 22 1017.2
20260507081558 13 22 1.6 4.8 0.00 0.00 0.00 23 1017.3
20260507081054 13 30 1.6 6.4 0.00 0.00 0.00 26 1017.3
20260507080553 13 30 1.6 8.0 0.00 0.00 0.00 25 1017.4
20260507080055 13 27 1.6 8.0 0.00 0.00 0.00 24 1017.2
20260507075557 13 14 3.2 9.7 0.00 0.00 0.00 23 1017.2
20260507075052 14 15 4.8 11.3 0.00 0.00 0.00 23 1017.2
20260507074552 14 14 4.8 11.3 0.00 0.00 0.00 22 1017.2
20260507074051 15 18 4.8 11.3 0.00 0.00 0.00 22 1017.2
20260507073549 14 6 4.8 11.3 0.00 0.00 0.00 22 1017.2
20260507073049 14 14 4.8 8.0 0.00 0.00 0.00 23 1017.4
20260507072548 13 26 1.6 4.8 0.00 0.00 0.00 23 1017.4
20260507072048 13 59 0.0 6.4 0.00 0.00 0.00 25 1017.4
20260507071549 13 59 0.0 3.2 0.00 0.00 0.00 24 1017.5
20260507071047 13 59 0.0 8.0 0.00 0.00 0.00 26 1017.5
20260507070547 13 59 0.0 8.0 0.00 0.00 0.00 27 1017.4
20260507070101 13 34 0.0 6.4 0.00 0.00 0.00 27 1017.4
20260507065545 13 33 0.0 3.2 0.00 0.00 0.00 27 1017.4
20260507065044 13 33 0.0 1.6 0.00 0.00 0.00 27 1017.4
20260507064551 13 33 0.0 8.0 0.00 0.00 0.00 26 1017.4
20260507064043 13 33 0.0 8.0 0.00 0.00 0.00 26 1017.4
20260507063542 14 21 0.0 6.4 0.00 0.00 0.00 24 1017.5
20260507063042 13 21 1.6 6.4 0.00 0.00 0.00 24 1017.4
20260507062545 13 22 0.0 6.4 0.00 0.00 0.00 26 1017.4
20260507062041 13 22 0.0 6.4 0.00 0.00 0.00 26 1017.4
20260507061540 14 22 0.0 6.4 0.00 0.00 0.00 25 1017.5
20260507061038 15 22 0.0 6.4 0.00 0.00 0.00 22 1017.5
20260507060539 15 22 3.2 6.4 0.00 0.00 0.00 22 1017.5
20260507060037 14 28 0.0 3.2 0.00 0.00 0.00 23 1017.6
20260507055536 14 28 0.0 6.4 0.00 0.00 0.00 24 1017.6
20260507055035 14 28 0.0 6.4 0.00 0.00 0.00 23 1017.6
20260507054545 15 25 1.6 4.8 0.00 0.00 0.00 23 1017.5
20260507054034 15 25 0.0 3.2 0.00 0.00 0.00 22 1017.3
20260507053536 15 25 0.0 3.2 0.00 0.00 0.00 22 1017.3
20260507053034 15 24 0.0 6.4 0.00 0.00 0.00 21 1017.3
20260507052533 16 24 1.6 6.4 0.00 0.00 0.00 20 1017.3
20260507052033 16 30 1.6 6.4 0.00 0.00 0.00 20 1017.3
20260507051534 15 7 3.2 4.8 0.00 0.00 0.00 21 1017.3
20260507051033 15 269 0.0 1.6 0.00 0.00 0.00 24 1017.3
20260507050534 16 269 0.0 6.4 0.00 0.00 0.00 23 1017.3
20260507050042 16 269 1.6 8.0 0.00 0.00 0.00 20 1017.3
20260507045532 16 17 0.0 6.4 0.00 0.00 0.00 21 1017.2
20260507045032 16 340 0.0 6.4 0.00 0.00 0.00 20 1017.2
20260507044534 16 1 0.0 8.0 0.00 0.00 0.00 19 1017.1
20260507044031 16 22 3.2 8.0 0.00 0.00 0.00 20 1017.1
20260507043531 16 355 1.6 3.2 0.00 0.00 0.00 22 1017.1
20260507043030 16 38 0.0 6.4 0.00 0.00 0.00 21 1017.1
20260507042531 16 30 0.0 3.2 0.00 0.00 0.00 19 1017.1
20260507042031 16 30 0.0 6.4 0.00 0.00 0.00 19 1016.9
20260507041530 17 30 0.0 4.8 0.00 0.00 0.00 19 1016.9
20260507041030 17 330 0.0 3.2 0.00 0.00 0.00 18 1016.9
20260507040529 17 329 0.0 3.2 0.00 0.00 0.00 18 1016.9
20260507040038 18 329 0.0 11.3 0.00 0.00 0.00 17 1016.8
20260507035530 17 281 1.6 11.3 0.00 0.00 0.00 16 1016.7
20260507035030 18 227 1.6 8.0 0.00 0.00 0.00 16 1016.7
20260507034530 18 229 1.6 12.9 0.00 0.00 0.00 15 1016.6
20260507034029 19 229 4.8 16.1 0.00 0.00 0.00 15 1016.6
20260507033529 18 276 8.0 16.1 0.00 0.00 0.00 15 1016.4
20260507033029 18 313 3.2 11.3 0.00 0.00 0.00 17 1016.5
20260507032528 18 276 1.6 6.4 0.00 0.00 0.00 17 1016.5
20260507032028 18 254 3.2 8.0 0.00 0.00 0.00 16 1016.4
20260507031530 18 276 1.6 11.3 0.00 0.00 0.00 15 1016.4
20260507031028 18 263 6.4 11.3 0.00 0.00 0.00 14 1016.3
20260507030529 18 342 1.6 3.2 0.00 0.00 0.00 17 1016.3
20260507030028 18 342 0.0 3.2 0.00 0.00 0.00 18 1016.2
20260507025528 18 342 1.6 8.0 0.00 0.00 0.00 15 1016.2
20260507025028 19 296 1.6 8.0 0.00 0.00 0.00 14 1016.0
20260507024533 20 276 1.6 11.3 0.00 0.00 0.00 13 1015.9
20260507024027 20 232 4.8 12.9 0.00 0.00 0.00 13 1015.8
20260507023527 20 240 4.8 12.9 0.00 0.00 0.00 13 1015.7
20260507023026 20 254 8.0 12.9 0.00 0.00 0.00 13 1015.6
20260507022527 20 257 6.4 12.9 0.00 0.00 0.00 13 1015.6
20260507022027 20 198 4.8 12.9 0.00 0.00 0.00 13 1015.5
20260507021533 20 221 6.4 14.5 0.00 0.00 0.00 14 1015.5
20260507021026 20 248 8.0 14.5 0.00 0.00 0.00 12 1015.5
20260507020526 21 220 6.4 14.5 0.00 0.00 0.00 13 1015.4
20260507020027 21 198 8.0 14.5 0.00 0.00 0.00 12 1015.4
20260507015526 21 211 6.4 12.9 0.00 0.00 0.00 12 1015.3
20260507015026 21 249 8.0 16.1 0.00 0.00 0.00 12 1015.3
20260507014529 21 197 9.7 20.9 0.00 0.00 0.00 11 1015.3
20260507014024 21 252 11.3 20.9 0.00 0.00 0.00 11 1015.2
20260507013525 22 206 11.3 20.9 0.00 0.00 0.00 11 1015.2
20260507013025 22 244 9.7 22.5 0.00 0.00 0.00 11 1015.2
20260507012525 22 257 12.9 22.5 0.00 0.00 0.00 11 1015.1
20260507012027 22 247 11.3 20.9 0.00 0.00 0.00 11 1015.1
20260507011525 22 251 9.7 20.9 0.00 0.00 0.00 11 1015.2
20260507011023 22 276 11.3 24.1 0.00 0.00 0.00 11 1015.1
20260507010527 22 267 11.3 24.1 0.00 0.00 0.00 11 1015.1
20260507010031 22 246 12.9 24.1 0.00 0.00 0.00 11 1015.0
20260507005524 22 240 12.9 29.0 0.00 0.00 0.00 11 1015.0
20260507005023 22 321 12.9 29.0 0.00 0.00 0.00 11 1014.9
20260507004522 23 236 16.1 29.0 0.00 0.00 0.00 11 1014.9
20260507004023 23 296 11.3 24.1 0.00 0.00 0.00 11 1014.9
20260507003524 23 281 12.9 24.1 0.00 0.00 0.00 12 1014.8
20260507003022 23 247 14.5 25.7 0.00 0.00 0.00 11 1014.8
20260507002521 23 257 16.1 25.7 0.00 0.00 0.00 11 1014.8
20260507002022 23 245 11.3 32.2 0.00 0.00 0.00 11 1014.7
20260507001522 23 223 14.5 32.2 0.00 0.00 0.00 12 1014.7
20260507001023 23 252 14.5 24.1 0.00 0.00 0.00 11 1014.7
20260507000522 23 305 12.9 24.1 0.00 0.00 0.00 11 1014.7
20260507000026 23 246 11.3 22.5 0.00 0.00 0.00 12 1014.6
20260506235521 23 281 12.9 20.9 0.00 0.00 0.00 12 1014.6
20260506235019 23 213 11.3 24.1 0.00 0.00 0.00 12 1014.6
20260506234520 23 253 16.1 24.1 0.00 0.00 0.00 12 1014.6
20260506234019 23 303 14.5 25.7 0.00 0.00 0.00 12 1014.5
20260506233520 23 257 16.1 30.6 0.00 0.00 0.00 11 1014.6
20260506233020 23 257 19.3 30.6 0.00 0.00 0.00 11 1014.6
20260506232518 23 257 12.9 29.0 0.00 0.00 0.00 11 1014.6
20260506232118 23 236 16.1 35.4 0.00 0.00 0.00 11 1014.7
20260506231520 24 248 17.7 30.6 0.00 0.00 0.00 11 1014.6
20260506231019 23 255 12.9 30.6 0.00 0.00 0.00 11 1014.6
20260506230517 23 248 12.9 25.7 0.00 0.00 0.00 12 1014.6
20260506230019 23 267 16.1 25.7 0.00 0.00 0.00 11 1014.6
20260506225516 23 296 12.9 32.2 0.00 0.00 0.00 11 1014.6
20260506225016 23 244 19.3 32.2 0.00 0.00 0.00 11 1014.7
20260506224516 23 256 17.7 30.6 0.00 0.00 0.00 11 1014.7
20260506224014 23 232 14.5 30.6 0.00 0.00 0.00 11 1014.7
20260506223514 24 221 14.5 33.8 0.00 0.00 0.00 12 1014.8
20260506223014 23 241 19.3 33.8 0.00 0.00 0.00 12 1014.8
20260506222514 23 228 14.5 32.2 0.00 0.00 0.00 12 1014.8
20260506222014 24 281 19.3 30.6 0.00 0.00 0.00 11 1014.9
20260506221513 23 200 16.1 32.2 0.00 0.00 0.00 11 1014.8
20260506221012 24 215 17.7 32.2 0.00 0.00 0.00 11 1014.9
20260506220513 23 267 12.9 29.0 0.00 0.00 0.00 12 1014.9
20260506220012 23 227 14.5 29.0 0.00 0.00 0.00 13 1014.9
20260506215512 23 244 12.9 24.1 0.00 0.00 0.00 14 1014.9
20260506215010 23 234 14.5 25.7 0.00 0.00 0.00 14 1015.0
20260506214512 24 293 11.3 30.6 0.00 0.00 0.00 13 1015.0
20260506214012 23 281 14.5 29.0 0.00 0.00 0.00 14 1015.1
20260506213510 23 240 14.5 25.7 0.00 0.00 0.00 13 1015.1
20260506213009 23 254 14.5 25.7 0.00 0.00 0.00 14 1015.2
20260506212509 23 250 12.9 20.9 0.00 0.00 0.00 15 1015.1
20260506212010 24 215 8.0 25.7 0.00 0.00 0.00 16 1015.1
20260506211508 23 215 12.9 25.7 0.00 0.00 0.00 16 1015.2
20260506211008 24 263 12.9 22.5 0.00 0.00 0.00 15 1015.3
20260506210508 23 327 12.9 24.1 0.00 0.00 0.00 16 1015.2
20260506210007 23 231 11.3 30.6 0.00 0.00 0.00 15 1015.2
20260506205507 23 211 11.3 37.0 0.00 0.00 0.00 16 1015.3
20260506205006 23 228 8.0 29.0 0.00 0.00 0.00 16 1015.3
20260506204512 23 223 17.7 29.0 0.00 0.00 0.00 17 1015.5
20260506204005 23 232 11.3 37.0 0.00 0.00 0.00 18 1015.4
20260506203505 23 291 11.3 30.6 0.00 0.00 0.00 18 1015.4
20260506203004 23 257 11.3 29.0 0.00 0.00 0.00 19 1015.5
20260506202503 23 212 11.3 29.0 0.00 0.00 0.00 20 1015.6
20260506202003 23 276 9.7 22.5 0.00 0.00 0.00 19 1015.6
20260506201506 22 248 6.4 25.7 0.00 0.00 0.00 18 1015.5
20260506201004 22 268 14.5 25.7 0.00 0.00 0.00 19 1015.7
20260506200501 23 325 6.4 19.3 0.00 0.00 0.00 19 1015.7
20260506200004 23 249 12.9 19.3 0.00 0.00 0.00 20 1015.7
20260506195501 23 281 6.4 20.9 0.00 0.00 0.00 21 1015.7
20260506195100 22 245 9.7 20.9 0.00 0.00 0.00 20 1015.8
20260506195004 22 254 11.3 20.9 0.00 0.00 0.00 20 1015.8
20260506194100 22 261 12.9 25.7 0.00 0.00 0.00 21 1015.9
20260506193559 22 304 8.0 22.5 0.00 0.00 0.00 21 1016.0
20260506193100 22 194 12.9 22.5 0.00 0.00 0.00 21 1016.1
20260506192558 21 186 3.2 24.1 0.00 0.00 0.00 23 1016.1
20260506192058 22 325 12.9 24.1 0.00 0.00 0.00 24 1016.1
20260506191605 22 276 12.9 22.5 0.00 0.00 0.00 23 1016.2
20260506191058 22 244 12.9 22.5 0.00 0.00 0.00 23 1016.2
20260506190558 22 227 8.0 20.9 0.00 0.00 0.00 22 1016.3
20260506190057 21 255 12.9 24.1 0.00 0.00 0.00 24 1016.3
20260506185556 21 245 11.3 24.1 0.00 0.00 0.00 24 1016.4
20260506185057 21 202 11.3 24.1 0.00 0.00 0.00 23 1016.5
20260506184558 21 262 8.0 19.3 0.00 0.00 0.00 24 1016.5
20260506184054 21 309 8.0 20.9 0.00 0.00 0.00 23 1016.6
20260506183554 21 252 12.9 24.1 0.00 0.00 0.00 24 1016.6
20260506183102 21 259 16.1 24.1 0.00 0.00 0.00 22 1016.6
20260506182551 21 264 11.3 25.7 0.00 0.00 0.00 23 1016.7
20260506182051 21 257 12.9 25.7 0.00 0.00 0.00 24 1016.7
20260506181602 20 263 11.3 22.5 0.00 0.00 0.00 25 1016.6
20260506181049 20 227 12.9 29.0 0.00 0.00 0.00 25 1016.7
20260506180550 20 213 14.5 29.0 0.00 0.00 0.00 25 1016.7
20260506180048 20 254 12.9 24.1 0.00 0.00 0.00 25 1016.8
20260506175546 20 276 12.9 30.6 0.00 0.00 0.00 25 1016.8
20260506175046 20 250 11.3 30.6 0.00 0.00 0.00 25 1016.8
20260506174545 20 242 11.3 24.1 0.00 0.00 0.00 25 1016.8
20260506174043 20 243 14.5 22.5 0.00 0.00 0.00 26 1016.9
20260506173542 20 234 9.7 25.7 0.00 0.00 0.00 27 1016.9
20260506173142 20 222 9.7 25.7 0.00 0.00 0.00 27 1017.0
20260506172542 20 263 11.3 22.5 0.00 0.00 0.00 27 1016.9
20260506172038 20 221 12.9 22.5 0.00 0.00 0.00 26 1016.9
20260506171542 19 245 12.9 22.5 0.00 0.00 0.00 27 1017.0
20260506171035 19 293 9.7 24.1 0.00 0.00 0.00 29 1017.0
20260506170534 18 258 12.9 29.0 0.00 0.00 0.00 29 1017.1
20260506170048 18 235 11.3 25.7 0.00 0.00 0.00 28 1017.1
20260506165533 18 238 16.1 25.7 0.00 0.00 0.00 27 1017.2
20260506165030 18 310 14.5 22.5 0.00 0.00 0.00 27 1017.2
20260506164529 18 230 9.7 29.0 0.00 0.00 0.00 30 1017.2
20260506164027 18 259 14.5 29.0 0.00 0.00 0.00 29 1017.2
20260506163527 18 258 14.5 22.5 0.00 0.00 0.00 30 1017.2
20260506163028 18 248 12.9 22.5 0.00 0.00 0.00 29 1017.1
20260506162523 18 236 12.9 20.9 0.00 0.00 0.00 31 1017.1
20260506162023 18 266 8.0 24.1 0.00 0.00 0.00 33 1017.0
20260506161521 17 281 12.9 25.7 0.00 0.00 0.00 32 1017.2
20260506161023 17 290 12.9 25.7 0.00 0.00 0.00 31 1017.1
20260506160518 17 253 17.7 25.7 0.00 0.00 0.00 32 1017.2
20260506160016 17 261 14.5 22.5 0.00 0.00 0.00 33 1017.1
20260506155514 18 276 9.7 19.3 0.00 0.00 0.00 33 1017.1
20260506155012 17 206 6.4 22.5 0.00 0.00 0.00 35 1017.1
20260506154512 17 251 9.7 22.5 0.00 0.00 0.00 35 1017.1
20260506154010 17 271 8.0 22.5 0.00 0.00 0.00 35 1017.0
20260506153508 17 271 11.3 22.5 0.00 0.00 0.00 35 1017.1
20260506153007 17 239 12.9 20.9 0.00 0.00 0.00 35 1017.1
20260506152508 16 223 9.7 17.7 0.00 0.00 0.00 36 1017.1
20260506152004 16 202 3.2 12.9 0.00 0.00 0.00 36 1017.1
20260506151507 16 250 4.8 14.5 0.00 0.00 0.00 37 1017.0
20260506151001 16 281 8.0 14.5 0.00 0.00 0.00 36 1017.0
20260506150600 16 252 6.4 14.5 0.00 0.00 0.00 37 1017.0
20260506150059 16 281 6.4 14.5 0.00 0.00 0.00 38 1017.0
20260506145558 16 263 6.4 12.9 0.00 0.00 0.00 38 1017.0
20260506145056 16 241 3.2 11.3 0.00 0.00 0.00 39 1017.0
20260506144559 16 247 6.4 12.9 0.00 0.00 0.00 39 1017.0
20260506144054 15 230 8.0 12.9 0.00 0.00 0.00 39 1017.0
20260506143555 15 272 4.8 11.3 0.00 0.00 0.00 39 1017.0
20260506143050 15 244 3.2 8.0 0.00 0.00 0.00 42 1016.9
20260506142548 15 276 3.2 8.0 0.00 0.00 0.00 41 1016.9
20260506142048 15 248 4.8 8.0 0.00 0.00 0.00 41 1017.0
20260506141547 15 276 3.2 6.4 0.00 0.00 0.00 42 1017.0
20260506141051 15 311 0.0 6.4 0.00 0.00 0.00 46 1016.9
20260506140547 14 318 0.0 1.6 0.00 0.00 0.00 45 1016.9
20260506140046 14 318 0.0 1.6 0.00 0.00 0.00 45 1016.8
20260506135545 14 318 0.0 3.2 0.00 0.00 0.00 46 1016.7
20260506135044 13 318 0.0 3.2 0.00 0.00 0.00 52 1016.7
20260506134544 12 318 0.0 1.6 0.00 0.00 0.00 54 1016.7
20260506134043 12 318 0.0 0.0 0.00 0.00 0.00 54 1016.7
20260506133544 12 318 0.0 0.0 0.00 0.00 0.00 56 1016.6
20260506133056 11 318 0.0 0.0 0.00 0.00 0.00 59 1016.7
20260506132543 11 318 0.0 6.4 0.00 0.00 0.00 57 1016.6
20260506132042 11 318 0.0 6.4 0.00 0.00 0.00 59 1016.6
20260506131541 11 318 0.0 6.4 0.00 0.00 0.00 60 1016.5
20260506131040 10 318 0.0 1.6 0.00 0.00 0.00 62 1016.4
20260506130542 10 318 0.0 1.6 0.00 0.00 0.00 63 1016.4
20260506130040 10 318 0.0 0.0 0.00 0.00 0.00 65 1016.3
20260506125538 9 318 0.0 0.0 0.00 0.00 0.00 65 1016.3
20260506125038 9 318 0.0 1.6 0.00 0.00 0.00 66 1016.3
20260506124538 9 318 0.0 1.6 0.00 0.00 0.00 66 1016.2
20260506124036 8 318 0.0 3.2 0.00 0.00 0.00 65 1016.2
20260506123535 8 318 0.0 3.2 0.00 0.00 0.00 65 1016.2
20260506123034 8 318 0.0 1.6 0.00 0.00 0.00 65 1016.1
20260506122534 9 318 0.0 3.2 0.00 0.00 0.00 64 1016.0
20260506122032 9 318 0.0 3.2 0.00 0.00 0.00 65 1016.0
20260506121532 9 318 0.0 1.6 0.00 0.00 0.00 63 1015.9
20260506121031 9 318 0.0 0.0 0.00 0.00 0.00 62 1015.9
20260506120531 9 318 0.0 1.6 0.00 0.00 0.00 61 1015.8
20260506120032 10 318 0.0 3.2 0.00 0.00 0.00 61 1015.7
20260506115530 9 318 0.0 3.2 0.00 0.00 0.00 62 1015.7
20260506115028 9 318 0.0 1.6 0.00 0.00 0.00 64 1015.7